Location: San Antonio
(29.4240°N, 98.4930°W)
Time: 02:45:54
(UTC-06:00)

ISS - All Passes

Search period start: 26 November 2014 00:00
Search period end: 06 December 2014 00:00
Orbit: 407 x 417 km, 51.6° (Epoch: 25 November)

Date Brightness Start Highest point End Pass type
(mag) Time Alt. Az. Time Alt. Az. Time Alt. Az.
26 Nov - 00:04:28 10° W 00:06:44 17° NW 00:08:59 10° N night (unlit)
26 Nov - 06:36:51 10° NNW 06:39:38 25° NE 06:42:25 10° E visible
26 Nov - 08:13:43 10° W 08:16:08 19° SW 08:18:33 10° S daylight
26 Nov - 21:38:31 10° SSE 21:40:25 15° SE 21:42:19 10° E night (unlit)
26 Nov - 23:13:51 10° WSW 23:16:49 31° NW 23:19:47 10° NNE night (unlit)
27 Nov - 05:47:49 10° N 05:49:41 14° NE 05:51:33 10° ENE visible
27 Nov - 07:23:20 10° WNW 07:26:27 40° SW 07:29:34 10° SSE daylight
27 Nov - 22:23:41 10° SW 22:26:56 67° NW 22:30:12 10° NE night (unlit)
28 Nov - 06:33:21 10° NW 06:36:39 86° NE 06:39:56 10° SE visible
28 Nov - 21:33:54 10° SSW 21:37:05 52° SE 21:40:17 10° NE night (unlit)
28 Nov - 23:12:33 10° WNW 23:13:56 12° NW 23:15:19 10° N night (unlit)
29 Nov - 05:43:38 10° NNW 05:46:44 38° NE 05:49:50 10° ESE visible
29 Nov - 07:21:47 10° WSW 07:23:03 12° SW 07:24:20 10° SSW daylight
29 Nov - 20:44:35 10° S 20:47:16 23° SE 20:49:57 10° ENE night (unlit)
29 Nov - 22:21:15 10° W 22:23:49 21° NW 22:26:24 10° NNE night (unlit)
30 Nov - 04:54:10 10° N 04:56:42 20° NE 04:59:13 10° E visible
30 Nov - 06:30:32 10° WNW 06:33:16 24° SW 06:36:00 10° S visible
30 Nov - 19:56:24 10° SE 19:57:27 11° SE 19:58:31 10° ESE night (unlit)
30 Nov - 21:30:39 10° WSW 21:33:45 40° NW 21:36:53 10° NNE night (unlit)
01 Dec - 04:05:16 10° NNE 04:06:31 12° NE 04:07:47 10° ENE visible
01 Dec - 05:40:09 10° NW 05:43:23 55° SW 05:46:36 10° SSE visible
01 Dec - 20:40:27 10° SW 20:43:44 90° NE 20:47:01 10° NE night (unlit)
02 Dec - 04:50:07 10° NW 04:53:23 63° NE 04:56:38 10° SE visible
02 Dec - 19:50:39 10° SSW 19:53:43 38° SE 19:56:48 10° ENE visible
02 Dec - 21:28:30 10° WNW 21:30:27 15° NW 21:32:24 10° N night (unlit)
03 Dec - 04:00:19 10° NNW 04:03:15 29° NE 04:06:11 10° ESE night (unlit)
03 Dec - 05:37:37 10° W 05:39:39 15° SW 05:41:41 10° SSW visible
03 Dec - 19:01:26 10° S 19:03:44 18° SE 19:06:03 10° E visible
03 Dec - 20:37:22 10° W 20:40:11 26° NW 20:43:01 10° NNE visible
04 Dec - 03:10:49 10° N 03:13:00 16° NE 03:15:10 10° E night (unlit)
04 Dec - 04:46:41 10° WNW 04:49:40 32° SW 04:52:38 10° SSE visible
04 Dec - 19:46:45 10° WSW 19:49:58 53° NW 19:53:12 10° NE visible
05 Dec - 03:56:17 10° NW 03:59:34 77° SW 04:02:50 10° SE night (unlit)
05 Dec - 18:56:32 10° SW 18:59:47 65° SE 19:03:03 10° NE visible
05 Dec - 20:35:57 10° NW 20:36:41 11° NW 20:37:26 10° NNW visible
